Wind_Speed
10 9 7 9 11 11 11 10 11 14 15 16 18 19 20 21 22 22 22 22 23 24 26 28 29 32 33 34 36 37 39 39 39 37 36 35 33 32 31 31 30 30 29 27
6 6 8 9 9 9 9 8 10 13 13 14 15 17 18 18 19 20 20 21 22 24 26 27 30 32 33 34 34 34 36 38 37 36 35 34 33 32 32 31 29 28 26 25
4 7 8 7 8 8 8 7 9 12 13 13 13 14 15 16 17 18 19 20 22 24 25 27 29 31 32 33 33 34 35 36 36 36 35 35 34 34 34 32 31 29 28 27
6 7 6 6 7 6 7 10 10 11 10 12 11 11 16 15 15 17 18 20 21 23 25 27 29 30 31 32 34 34 35 36 37 37 38 38 37 37 36 36 35 34 33 32
7 7 6 6 7 6 8 9 9 9 9 10 11 9 17 16 17 18 19 20 22 23 25 27 29 31 32 34 35 36 37 38 38 39 40 41 41 41 40 40 40 39 39 38
6 6 7 7 7 7 7 7 7 7 7 9 12 10 16 16 17 18 20 21 23 24 26 28 30 32 34 35 36 37 38 40 41 42 43 43 44 44 44 44 44 44 43 43
5 6 6 6 6 7 6 6 8 8 8 11 15 13 17 17 18 19 21 23 25 26 28 30 32 34 36 37 38 39 41 42 44 45 45 46 46 47 47 48 48 48 48 48
4 6 7 7 7 7 7 7 8 9 10 12 16 14 16 17 18 20 23 25 26 28 30 32 34 36 37 39 40 42 43 44 45 46 47 47 48 48 49 50 51 51 52 52
5 7 7 7 7 7 8 8 9 10 12 11 14 17 16 18 20 22 24 26 28 30 32 34 36 38 39 41 43 44 45 45 46 47 47 48 49 50 51 52 52 53 53 54
6 7 8 8 8 7 8 8 9 10 11 11 14 18 19 19 21 24 26 28 30 32 35 36 38 40 41 43 44 45 46 46 46 47 48 49 50 51 51 52 52 53 53 54
6 7 8 8 8 9 9 9 10 11 12 12 14 19 19 21 23 26 28 30 33 35 37 38 40 42 43 44 45 46 46 46 47 47 47 48 48 49 49 49 50 51 52 53
7 7 8 9 9 9 9 10 11 12 14 14 16 20 20 23 25 28 30 32 34 36 38 40 42 43 44 45 46 46 46 46 47 48 48 48 48 49 49 49 50 50 51 52
7 6 7 9 10 10 11 11 11 12 14 15 16 22 23 25 27 30 32 34 36 38 40 42 43 44 45 46 46 46 46 47 48 49 49 49 49 49 49 49 49 50 51 51
6 5 5 7 10 11 12 12 13 14 15 17 19 22 25 27 29 32 34 35 37 40 42 43 44 45 46 46 46 47 48 48 48 49 49 49 49 50 50 50 50 50 51 51
6 6 7 8 9 11 12 13 14 15 16 18 20 23 25 28 31 33 35 37 39 41 43 45 45 45 46 46 47 47 48 48 49 49 49 49 49 50 50 51 51 50 50 50
7 7 8 9 11 13 13 14 15 17 18 19 21 24 26 29 32 34 37 38 40 42 44 45 46 46 46 47 47 47 47 48 49 49 50 50 50 50 50 50 49 49 48 47
8 8 9 11 13 14 14 15 16 18 19 21 23 25 28 30 33 36 38 40 42 44 45 46 46 46 46 47 48 47 47 49 49 50 50 51 50 49 48 47 46 46 45 45
8 9 11 12 14 14 15 16 17 18 20 22 24 27 29 32 35 38 40 41 43 45 46 47 47 47 47 48 47 47 48 50 50 50 50 49 48 46 45 43 42 40 40 40
10 11 12 14 15 16 16 17 18 18 19 22 25 28 30 33 35 39 41 43 45 47 47 48 48 48 48 48 47 48 49 50 50 50 49 48 46 44 43 40 38 36 35 35
12 13 15 16 17 17 18 18 19 21 21 23 26 29 32 35 37 39 42 44 46 47 48 48 48 48 48 48 48 48 49 50 50 49 48 46 45 43 40 37 34 32 30 30
14 15 15 17 18 19 19 20 21 23 25 26 28 31 34 37 39 42 43 45 47 48 48 48 48 47 48 48 48 48 49 50 49 48 47 45 43 40 37 33 31 29 26 25
15 16 16 17 18 20 20 21 22 23 25 27 29 32 35 37 40 42 45 46 48 48 49 49 47 47 48 48 48 48 49 48 47 47 45 43 41 38 34 31 28 25 22 20
15 16 18 18 19 20 21 22 23 24 26 28 30 33 36 38 40 43 45 47 48 49 49 48 47 46 47 48 47 47 48 47 46 45 43 41 39 36 32 29 25 22 18 15
17 17 18 19 20 21 22 23 24 25 27 28 31 33 36 39 42 44 46 48 48 49 49 48 47 46 47 47 46 46 46 46 45 43 41 39 37 34 30 26 23 19 15 12
19 19 19 20 21 22 22 23 24 26 27 29 31 34 37 40 43 45 47 48 49 49 49 48 46 46 46 45 45 45 44 44 43 42 40 39 36 33 29 25 22 18 14 10
20 20 21 21 22 22 23 24 25 26 28 30 32 35 38 41 43 46 48 49 49 49 49 47 46 45 45 44 43 43 42 42 42 40 39 38 36 33 29 25 21 18 14 10
Wind_Direction
282 275 266 263 267 262 266 267 269 274 278 279 278 279 279 280 281 281 281 280 279 278 279 279 280 282 284 284 284 285 285 286 289 291 291 290 291 287 285 286 283 278 277 270
282 273 268 273 274 273 277 280 280 283 285 286 284 284 284 282 281 281 282 281 282 282 281 282 284 287 286 287 288 289 289 289 289 291 291 291 292 289 286 286 284 279 274 272
253 260 276 276 277 281 284 279 279 287 292 293 293 295 289 286 285 285 284 284 285 286 286 286 288 289 290 290 292 291 290 290 292 293 292 292 291 289 285 284 284 280 275 273
280 282 282 279 277 274 275 278 286 294 301 300 299 298 295 293 291 289 291 291 290 290 292 292 293 294 295 294 294 294 293 292 292 292 291 289 288 286 284 282 282 278 275 273
277 277 280 277 272 272 268 284 293 300 303 301 302 297 292 296 295 295 296 295 295 296 297 297 297 297 297 296 295 295 295 294 292 291 289 287 285 283 281 279 278 277 275 272
280 280 279 276 273 276 287 298 309 316 318 298 297 299 288 298 297 297 299 300 299 299 299 298 299 298 299 298 296 295 295 294 293 291 289 287 285 283 281 278 276 274 272 270
310 296 288 284 286 288 290 308 313 311 307 290 296 296 289 300 301 300 302 302 302 301 300 300 301 301 300 298 297 296 295 294 292 291 289 287 285 283 280 278 275 273 270 268
305 290 288 288 284 285 292 295 290 287 292 295 302 299 300 303 304 304 305 305 304 304 304 304 304 303 301 300 298 297 296 295 294 291 289 287 285 282 280 277 274 272 269 267
292 288 294 299 301 298 301 295 292 298 303 306 301 303 304 307 308 308 308 308 309 308 308 307 306 305 304 302 301 299 298 296 295 292 290 288 285 282 280 277 274 272 269 267
305 302 300 305 305 303 300 302 305 307 305 307 305 308 314 314 314 314 313 313 313 312 311 310 308 307 306 305 303 302 300 299 297 295 292 290 287 284 281 277 274 272 269 267
312 311 308 307 308 307 308 308 310 311 313 314 308 306 318 317 317 317 316 316 316 315 314 313 312 310 309 308 307 306 304 302 300 298 296 293 290 287 284 280 277 274 271 268
308 310 307 307 309 311 312 316 318 317 316 319 318 313 323 321 320 320 319 319 319 318 317 316 315 314 313 313 311 310 308 307 304 302 299 296 293 290 286 282 279 276 273 270
306 309 320 320 318 319 320 324 326 324 323 324 323 317 325 323 322 322 322 322 322 321 320 320 319 318 317 316 315 313 312 310 308 305 302 299 296 292 289 285 281 278 274 271
305 310 310 300 307 318 323 327 328 327 326 325 325 323 325 326 325 325 325 326 325 324 324 323 322 321 320 319 317 316 314 312 311 309 306 302 299 296 292 289 284 280 276 271
312 314 315 315 318 321 324 327 327 327 326 326 326 327 327 327 327 327 328 328 328 327 326 326 325 324 322 321 320 318 317 315 313 311 309 305 302 298 295 291 287 283 278 272
317 319 323 324 324 324 325 327 327 326 326 328 329 329 330 330 329 330 331 331 330 330 329 328 327 326 324 323 322 320 319 318 316 314 312 309 305 302 298 294 289 284 278 273
317 321 326 325 325 324 325 327 327 326 326 329 331 331 333 333 332 333 334 333 332 332 332 331 329 328 327 326 325 323 322 321 320 318 316 313 310 306 303 298 293 287 280 273
317 321 323 323 324 325 324 326 326 327 327 329 331 333 334 335 335 335 335 334 335 334 333 333 332 331 330 329 328 327 326 325 323 321 320 317 315 311 307 302 297 290 283 276
315 317 320 322 324 323 324 326 327 329 329 330 332 334 335 337 337 337 337 337 337 336 335 335 334 333 333 332 332 330 330 329 327 325 324 322 319 316 312 307 302 294 286 278
311 314 317 320 321 321 324 327 328 329 330 332 334 336 337 338 339 339 339 338 338 337 337 337 336 335 335 335 334 333 333 332 331 329 328 326 324 321 317 312 307 300 290 280
308 311 313 315 317 317 322 326 328 329 331 334 335 337 338 339 340 340 339 339 339 339 339 338 338 337 337 337 336 336 336 335 335 334 332 330 328 326 323 318 313 306 296 285
306 308 309 311 313 314 320 323 326 327 330 332 334 336 338 339 339 339 340 340 340 340 340 340 339 339 339 340 340 340 339 339 339 338 337 335 334 331 329 325 321 313 301 291
302 304 306 309 309 312 317 320 323 326 329 332 333 335 337 338 338 339 340 341 341 341 341 341 341 341 342 342 342 343 343 343 343 343 342 341 341 340 337 335 331 323 312 298
303 304 305 306 308 311 315 318 321 325 328 330 332 334 336 337 338 339 340 341 342 342 342 342 343 343 344 344 344 345 347 347 348 348 348 348 347 347 345 343 341 338 328 312
303 305 305 306 308 310 313 316 319 323 326 329 331 333 335 336 337 339 340 341 342 343 343 343 344 344 345 346 347 348 350 351 352 353 353 353 353 353 353 352 350 348 343 330
302 304 305 306 307 309 312 315 319 322 325 328 330 332 334 335 337 338 340 341 343 343 344 344 345 346 347 348 349 351 352 354 355 357 358 359 359 360 1 1 1 1 359 354
Height
5867 5869 5870 5870 5870 5870 5871 5872 5872 5870 5869 5869 5868 5867 5866 5866 5865 5864 5864 5863 5862 5861 5859 5858 5856 5854 5852 5849 5846 5843 5840 5837 5834 5830 5827 5824 5820 5816 5813 5812 5809 5808 5806 5805
5867 5868 5867 5867 5867 5868 5868 5869 5869 5867 5866 5866 5864 5863 5862 5861 5860 5860 5859 5858 5857 5855 5853 5852 5850 5847 5844 5841 5838 5834 5831 5829 5826 5823 5819 5816 5813 5809 5806 5805 5803 5801 5800 5799
5867 5867 5865 5866 5866 5866 5867 5868 5867 5865 5863 5863 5862 5861 5859 5857 5856 5855 5854 5853 5851 5849 5847 5845 5842 5839 5836 5833 5830 5827 5824 5820 5817 5814 5811 5808 5805 5802 5800 5798 5796 5795 5793 5793
5865 5865 5864 5865 5865 5864 5866 5864 5863 5862 5861 5861 5860 5860 5856 5854 5852 5851 5849 5848 5846 5844 5841 5838 5836 5832 5829 5826 5823 5819 5815 5812 5809 5806 5803 5800 5797 5794 5792 5790 5789 5787 5786 5785
5865 5863 5863 5863 5862 5862 5862 5861 5860 5859 5859 5859 5857 5858 5854 5851 5849 5847 5845 5843 5841 5838 5836 5832 5829 5826 5822 5819 5815 5811 5807 5804 5800 5797 5794 5791 5788 5785 5783 5781 5779 5778 5777 5776
5862 5862 5861 5861 5860 5860 5859 5859 5858 5857 5858 5858 5855 5855 5852 5848 5846 5843 5841 5838 5836 5833 5830 5827 5823 5819 5815 5811 5807 5803 5799 5795 5791 5787 5783 5780 5777 5774 5772 5770 5768 5767 5766 5765
5862 5861 5860 5859 5859 5859 5858 5859 5859 5858 5857 5856 5852 5851 5848 5844 5842 5840 5837 5834 5831 5828 5825 5821 5817 5812 5808 5803 5798 5794 5789 5785 5780 5776 5772 5768 5765 5762 5759 5757 5755 5753 5752 5752
5863 5862 5859 5858 5858 5857 5856 5857 5858 5857 5856 5854 5849 5847 5844 5841 5838 5836 5833 5829 5826 5822 5818 5813 5809 5804 5799 5794 5789 5784 5779 5774 5769 5764 5759 5755 5751 5748 5745 5743 5740 5738 5737 5736
5861 5861 5858 5857 5856 5855 5855 5854 5854 5853 5852 5850 5848 5843 5840 5837 5835 5832 5828 5824 5820 5816 5811 5806 5801 5795 5790 5784 5778 5773 5767 5762 5756 5751 5746 5741 5737 5733 5730 5727 5724 5722 5721 5720
5859 5859 5857 5856 5855 5854 5853 5852 5851 5850 5848 5848 5845 5840 5837 5833 5830 5827 5822 5818 5814 5809 5803 5798 5792 5786 5780 5774 5767 5761 5755 5749 5743 5737 5731 5726 5721 5717 5713 5709 5707 5705 5703 5702
5857 5857 5856 5854 5853 5852 5851 5850 5848 5847 5845 5844 5842 5840 5834 5829 5826 5821 5816 5812 5806 5801 5795 5789 5783 5776 5769 5762 5755 5748 5742 5735 5729 5723 5716 5711 5705 5700 5696 5693 5689 5687 5685 5684
5856 5855 5854 5852 5851 5849 5848 5847 5846 5845 5842 5839 5837 5836 5829 5824 5820 5815 5810 5805 5799 5793 5787 5780 5773 5765 5758 5750 5743 5736 5728 5721 5714 5708 5702 5696 5690 5684 5679 5675 5672 5669 5667 5665
5854 5853 5853 5851 5851 5848 5845 5844 5842 5841 5838 5835 5833 5831 5824 5819 5815 5809 5804 5798 5792 5785 5778 5771 5763 5755 5747 5739 5731 5723 5716 5708 5700 5693 5686 5679 5673 5667 5662 5658 5654 5650 5648 5646
5852 5851 5852 5851 5848 5845 5843 5841 5839 5837 5835 5832 5829 5825 5819 5814 5809 5803 5797 5791 5784 5777 5769 5761 5753 5745 5736 5728 5720 5711 5703 5695 5686 5678 5671 5663 5656 5650 5644 5639 5635 5631 5629 5627
5850 5849 5848 5846 5844 5842 5840 5838 5836 5833 5831 5828 5824 5819 5815 5809 5803 5797 5791 5784 5777 5769 5761 5752 5743 5735 5726 5717 5709 5700 5691 5682 5673 5664 5656 5648 5640 5633 5626 5620 5615 5611 5608 5606
5848 5847 5846 5844 5842 5840 5838 5835 5833 5830 5827 5823 5820 5815 5810 5804 5798 5791 5785 5777 5770 5761 5752 5743 5734 5725 5716 5707 5698 5688 5679 5669 5659 5650 5641 5632 5624 5616 5608 5601 5596 5591 5588 5586
5846 5845 5844 5842 5840 5837 5835 5833 5830 5826 5823 5819 5815 5811 5805 5799 5792 5785 5778 5770 5762 5753 5744 5734 5725 5716 5706 5696 5686 5676 5666 5656 5646 5636 5626 5616 5607 5599 5591 5583 5577 5572 5569 5567
5844 5843 5841 5840 5838 5835 5835 5830 5826 5823 5819 5815 5810 5805 5800 5794 5786 5779 5771 5763 5754 5745 5736 5726 5716 5706 5696 5686 5675 5665 5655 5644 5633 5622 5611 5601 5591 5583 5574 5567 5561 5555 5551 5549
5842 5840 5839 5837 5835 5832 5830 5826 5822 5819 5816 5811 5806 5801 5795 5789 5781 5773 5764 5756 5747 5737 5727 5717 5707 5697 5686 5676 5666 5655 5644 5633 5621 5610 5599 5588 5578 5569 5560 5552 5545 5540 5536 5534
5839 5837 5836 5834 5831 5829 5827 5822 5818 5816 5811 5807 5801 5795 5789 5783 5776 5769 5759 5750 5741 5731 5720 5710 5699 5688 5678 5668 5657 5645 5634 5623 5611 5599 5588 5577 5567 5557 5547 5539 5533 5527 5523 5520
5836 5834 5832 5830 5827 5825 5822 5818 5814 5811 5807 5801 5795 5790 5783 5776 5769 5762 5753 5744 5734 5724 5713 5703 5692 5681 5671 5660 5649 5637 5626 5614 5602 5590 5578 5567 5557 5547 5538 5530 5523 5517 5513 5510
5833 5831 5829 5827 5824 5822 5817 5813 5810 5807 5801 5796 5790 5785 5778 5771 5764 5756 5747 5737 5727 5718 5707 5696 5686 5675 5664 5653 5642 5630 5618 5606 5594 5583 5571 5560 5549 5538 5530 5522 5515 5510 5505 5502
5829 5827 5825 5823 5821 5816 5812 5809 5805 5801 5796 5791 5786 5780 5773 5766 5759 5751 5742 5732 5722 5711 5701 5690 5679 5669 5658 5647 5635 5624 5613 5601 5589 5577 5565 5554 5543 5533 5525 5517 5510 5504 5500 5497
5824 5822 5820 5817 5814 5811 5807 5803 5800 5795 5791 5786 5781 5775 5768 5761 5753 5745 5736 5726 5716 5706 5695 5685 5674 5663 5653 5642 5630 5619 5608 5596 5585 5573 5562 5551 5540 5531 5522 5514 5507 5501 5497 5494
5819 5817 5814 5812 5809 5806 5802 5799 5795 5790 5786 5781 5775 5770 5763 5756 5748 5739 5730 5721 5711 5701 5690 5679 5669 5659 5648 5637 5626 5616 5605 5594 5582 5571 5560 5549 5539 5529 5521 5513 5506 5501 5496 5493
5813 5812 5809 5807 5804 5801 5797 5793 5789 5785 5781 5776 5770 5764 5758 5750 5743 5734 5725 5715 5705 5695 5685 5675 5664 5654 5644 5634 5623 5613 5602 5592 5581 5570 5560 5549 5539 5529 5521 5514 5507 5501 5497 5493